| time (UTC) | temp F | wind direction | speed knots | gust knots | rain 1hr in | rain 24hr in | rain mn in | humidity % | barometer mb |
| 20260503224844 | 45 | 1.7 | 0.0 | 0.00 | 0.00 | 0.00 | 76 | 1017.0 | |
| 20260503223356 | 45 | 1.7 | 0.0 | 0.00 | 0.00 | 0.00 | 76 | 1017.0 | |
| 20260503221904 | 46 | 1.7 | 0.0 | 0.00 | 0.00 | 0.00 | 71 | 1017.0 | |
| 20260503220429 | 46 | 1.7 | 0.0 | 0.00 | 0.00 | 0.00 | 71 | 1017.0 | |
| 20260503214851 | 48 | 100 | 4.3 | 0.0 | 0.00 | 0.00 | 0.00 | 62 | 1018.0 |
| 20260503213347 | 48 | 100 | 4.3 | 0.0 | 0.00 | 0.00 | 0.00 | 62 | 1018.0 |
| 20260503211848 | 50 | 20 | 1.7 | 0.0 | 0.00 | 0.00 | 0.00 | 58 | 1018.0 |
| 20260503210347 | 50 | 20 | 1.7 | 0.0 | 0.00 | 0.00 | 0.00 | 58 | 1018.0 |
| 20260503204854 | 48 | 0 | 0.0 | 0.0 | 0.00 | 0.00 | 0.00 | 62 | 1018.0 |
| 20260503203508 | 48 | 0 | 0.0 | 0.0 | 0.00 | 0.00 | 0.00 | 62 | 1018.0 |
| 20260503201848 | 50 | 1.7 | 0.0 | 0.00 | 0.00 | 0.00 | 58 | 1018.0 | |
| 20260503200357 | 50 | 1.7 | 0.0 | 0.00 | 0.00 | 0.00 | 58 | 1018.0 | |
| 20260503194913 | 48 | 1.7 | 0.0 | 0.00 | 0.00 | 0.00 | 62 | 1018.0 | |
| 20260503193510 | 48 | 1.7 | 0.0 | 0.00 | 0.00 | 0.00 | 62 | 1018.0 | |
| 20260503191845 | 50 | 120 | 1.7 | 0.0 | 0.00 | 0.00 | 0.00 | 54 | 1019.0 |
| 20260503190348 | 50 | 120 | 1.7 | 0.0 | 0.00 | 0.00 | 0.00 | 54 | 1019.0 |
| 20260503185008 | 50 | 310 | 2.6 | 0.0 | 0.00 | 0.00 | 0.00 | 47 | 1019.0 |
| 20260503183347 | 50 | 310 | 2.6 | 0.0 | 0.00 | 0.00 | 0.00 | 47 | 1019.0 |
| 20260503181847 | 52 | 310 | 2.6 | 0.0 | 0.00 | 0.00 | 0.00 | 47 | 1019.0 |
| 20260503180347 | 52 | 310 | 2.6 | 0.0 | 0.00 | 0.00 | 0.00 | 47 | 1019.0 |
| 20260503174907 | 52 | 280 | 5.2 | 0.0 | 0.00 | 0.00 | 0.00 | 50 | 1018.0 |
| 20260503173412 | 52 | 280 | 5.2 | 0.0 | 0.00 | 0.00 | 0.00 | 50 | 1018.0 |
| 20260503171847 | 55 | 340 | 4.3 | 0.0 | 0.00 | 0.00 | 0.00 | 38 | 1018.0 |
| 20260503170348 | 55 | 340 | 4.3 | 0.0 | 0.00 | 0.00 | 0.00 | 38 | 1018.0 |
| 20260503150347 | 63 | 1.7 | 0.0 | 0.00 | 0.00 | 0.00 | 30 | 1019.0 | |
| 20260503130348 | 63 | 330 | 5.2 | 0.0 | 0.00 | 0.00 | 0.00 | 30 | 1020.0 |
| 20260503110408 | 59 | 20 | 7.0 | 0.0 | 0.00 | 0.00 | 0.00 | 31 | 1022.0 |
| 20260503090408 | 57 | 310 | 7.0 | 0.0 | 0.00 | 0.00 | 0.00 | 36 | 1023.0 |
| 20260503080358 | 55 | 20 | 5.2 | 0.0 | 0.00 | 0.00 | 0.00 | 36 | 1024.0 |
| 20260503071846 | 50 | 310 | 2.6 | 0.0 | 0.00 | 0.00 | 0.00 | 54 | 1024.0 |
| 20260503070348 | 50 | 310 | 2.6 | 0.0 | 0.00 | 0.00 | 0.00 | 54 | 1024.0 |
| 20260503054847 | 45 | 0.9 | 0.0 | 0.00 | 0.00 | 0.00 | 76 | 1024.0 | |
| 20260503053347 | 45 | 0.9 | 0.0 | 0.00 | 0.00 | 0.00 | 76 | 1024.0 | |
| 20260503051847 | 39 | 0.9 | 0.0 | 0.00 | 0.00 | 0.00 | 87 | 1023.0 | |
| 20260503050347 | 39 | 0.9 | 0.0 | 0.00 | 0.00 | 0.00 | 87 | 1023.0 | |
| 20260503044847 | 36 | 330 | 1.7 | 0.0 | 0.00 | 0.00 | 0.00 | 93 | 1023.0 |
| 20260503043348 | 36 | 330 | 1.7 | 0.0 | 0.00 | 0.00 | 0.00 | 93 | 1023.0 |
| 20260503041847 | 32 | 310 | 1.7 | 0.0 | 0.00 | 0.00 | 0.00 | 93 | 1023.0 |
| 20260503040410 | 32 | 310 | 1.7 | 0.0 | 0.00 | 0.00 | 0.00 | 93 | 1023.0 |
| 20260503034846 | 30 | 320 | 2.6 | 0.0 | 0.00 | 0.00 | 0.00 | 93 | 1023.0 |
| 20260503033347 | 30 | 320 | 2.6 | 0.0 | 0.00 | 0.00 | 0.00 | 93 | 1023.0 |
| 20260503031844 | 32 | 360 | 2.6 | 0.0 | 0.00 | 0.00 | 0.00 | 93 | 1023.0 |
| 20260503030347 | 32 | 360 | 2.6 | 0.0 | 0.00 | 0.00 | 0.00 | 93 | 1023.0 |
| 20260503024902 | 30 | 340 | 2.6 | 0.0 | 0.00 | 0.00 | 0.00 | 93 | 1023.0 |
| 20260503023348 | 30 | 340 | 2.6 | 0.0 | 0.00 | 0.00 | 0.00 | 93 | 1023.0 |
| 20260503021847 | 32 | 340 | 4.3 | 0.0 | 0.00 | 0.00 | 0.00 | 87 | 1023.0 |
| 20260503020347 | 32 | 340 | 4.3 | 0.0 | 0.00 | 0.00 | 0.00 | 87 | 1023.0 |
| 20260503014844 | 32 | 10 | 2.6 | 0.0 | 0.00 | 0.00 | 0.00 | 87 | 1023.0 |
| 20260503013347 | 32 | 10 | 2.6 | 0.0 | 0.00 | 0.00 | 0.00 | 87 | 1023.0 |
| 20260503011848 | 36 | 20 | 4.3 | 0.0 | 0.00 | 0.00 | 0.00 | 87 | 1023.0 |
| 20260503010348 | 36 | 20 | 4.3 | 0.0 | 0.00 | 0.00 | 0.00 | 87 | 1023.0 |
| 20260503004844 | 34 | 10 | 2.6 | 0.0 | 0.00 | 0.00 | 0.00 | 93 | 1023.0 |
| 20260503003347 | 34 | 10 | 2.6 | 0.0 | 0.00 | 0.00 | 0.00 | 93 | 1023.0 |
| 20260503001847 | 36 | 360 | 2.6 | 0.0 | 0.00 | 0.00 | 0.00 | 87 | 1023.0 |
| 20260503000347 | 36 | 360 | 2.6 | 0.0 | 0.00 | 0.00 | 0.00 | 87 | 1023.0 |
| 20260502234847 | 36 | 340 | 4.3 | 0.0 | 0.00 | 0.00 | 0.00 | 87 | 1023.0 |
| 20260502233347 | 36 | 340 | 4.3 | 0.0 | 0.00 | 0.00 | 0.00 | 87 | 1023.0 |
| 20260502231848 | 37 | 30 | 1.7 | 0.0 | 0.00 | 0.00 | 0.00 | 87 | 1023.0 |
| 20260502230348 | 37 | 30 | 1.7 | 0.0 | 0.00 | 0.00 | 0.00 | 87 | 1023.0 |